STARLINK-32474 (61260 NORAD) Tracking and Keplerian Element Data

This shows tracking and keplerian element data for the satellite.

Feedback or suggestion? Click here.




ElementValue
Catalog61260
NameSTARLINK-32474
Epoch Orbit398
Epoch Day286.91668981
Epoch Year2024
RAAN65.2021
Inclination53.1583
Eccentricity5.74E-05
Argument of Perigee46.2704
Mean Anonmoly332.8114
Mean Motion15.73717725
Decay Rate0.00036917
L11 61260U 24175T 24286.91668981 .00036917 00000+0 26046-3 0 9990
L22 61260 53.1583 65.2021 0000574 46.2704 332.8114 15.73717725 3984



Live tracking and technical data element details for STARLINK-32474 (NORAD 61260). STARLINK-32474 can be tracked NOW for your location showing map with azimuth and elevation plus other details from your city location.







IsCatalogInMostPopularTable: catalog: 61260, numindb: 28
Update: records affected: 1



GetName: 61260 STARLINK-32474

Hit Count: updated at: Fri, 06 Dec 2024 12:09:29 GMT